RSL89 LOWW-LFPO

Flight info

Callsign RSL89
Flight time N/A
Altitude 34000
Route SOVIL DCT SITNI DCT BAGSI DCT MATIG DCT SBG DCT TRAUN L856 RAVED Y112 HOC DCT MOROK DCT PENDU DCT JAVVU DCT DJL
Aircraft B738/M-SDE2E3FGHIRWXY/LB1

Departure

Time 2026-05-04 16:30
Airport Vienna International Airport (LOWW)

Arrival

Time N/A
Airport Paris-Orly Airport (LFPO)
Time Latitude Longitude Altitude Speed Heading
2026-05-04 15:53 48.11900 16.56770 609 ft 0 kts 206°
2026-05-04 16:16 48.11959 16.56791 607 ft 4 kts 162°
2026-05-04 16:17 48.11974 16.56775 607 ft 1 kts 116°
2026-05-04 16:19 48.11955 16.56837 612 ft 11 kts 116°
2026-05-04 16:20 48.11855 16.57157 607 ft 7 kts 93°
2026-05-04 16:20 48.11855 16.57302 607 ft 7 kts 41°
2026-05-04 16:21 48.11994 16.57365 617 ft 9 kts 71°
2026-05-04 16:22 48.12002 16.57567 619 ft 10 kts 105°
2026-05-04 16:22 48.11997 16.57591 607 ft 0 kts 105°
2026-05-04 16:29 48.11437 16.58047 615 ft 106 kts 164°
2026-05-04 16:30 48.07878 16.59612 1459 ft 221 kts 165°
2026-05-04 16:31 48.04905 16.59507 2989 ft 236 kts 212°
2026-05-04 16:31 48.01787 16.53405 5414 ft 254 kts 235°
2026-05-04 16:32 47.98809 16.46692 7815 ft 261 kts 236°
2026-05-04 16:33 47.97833 16.41507 9325 ft 275 kts 269°
2026-05-04 16:33 47.98079 16.35663 10420 ft 297 kts 270°
2026-05-04 16:34 47.98391 16.29063 10743 ft 339 kts 271°
2026-05-04 16:34 47.98548 16.25476 11087 ft 350 kts 271°
2026-05-04 16:35 47.98981 16.14461 12791 ft 362 kts 271°
2026-05-04 16:35 47.99727 16.03060 14459 ft 372 kts 275°
2026-05-04 16:36 48.00039 15.99223 15048 ft 373 kts 274°
2026-05-04 16:36 48.00654 15.91478 16057 ft 378 kts 274°
2026-05-04 16:37 48.01252 15.83617 17096 ft 384 kts 275°
2026-05-04 16:37 48.01550 15.79629 17604 ft 387 kts 275°
2026-05-04 16:37 48.02141 15.71651 18601 ft 391 kts 275°
2026-05-04 16:38 48.02737 15.63518 19442 ft 397 kts 275°
2026-05-04 16:39 48.03637 15.51105 20688 ft 404 kts 275°
2026-05-04 16:39 48.04240 15.42682 21397 ft 411 kts 275°
2026-05-04 16:40 48.04753 15.34135 22212 ft 415 kts 272°
2026-05-04 16:40 48.04875 15.25512 23142 ft 414 kts 270°
2026-05-04 16:41 48.04951 15.16860 23768 ft 419 kts 270°
2026-05-04 16:41 48.05128 15.03673 24595 ft 426 kts 271°
2026-05-04 16:42 48.05314 14.90293 25293 ft 435 kts 271°
2026-05-04 16:43 48.05427 14.81239 25867 ft 437 kts 270°
2026-05-04 16:43 48.05509 14.72107 26369 ft 441 kts 270°
2026-05-04 16:43 48.05546 14.67528 26612 ft 442 kts 270°
2026-05-04 16:44 48.05682 14.49029 27585 ft 447 kts 270°
2026-05-04 16:45 48.05741 14.39764 28001 ft 450 kts 270°
2026-05-04 16:46 48.05816 14.25647 28665 ft 454 kts 270°
2026-05-04 16:46 48.05851 14.16228 29339 ft 450 kts 270°
2026-05-04 16:47 48.05879 14.06967 30199 ft 443 kts 269°
2026-05-04 16:47 48.05899 13.97734 30579 ft 445 kts 269°
2026-05-04 16:48 48.05917 13.83987 31411 ft 440 kts 269°
2026-05-04 16:48 48.05919 13.79413 31647 ft 440 kts 269°
2026-05-04 16:49 48.05919 13.70257 32094 ft 440 kts 269°
2026-05-04 16:49 48.05912 13.61092 32500 ft 440 kts 269°
2026-05-04 16:50 48.05812 13.51988 33070 ft 437 kts 264°
2026-05-04 16:50 48.05069 13.42979 33510 ft 436 kts 261°
2026-05-04 16:51 48.04230 13.34015 34004 ft 434 kts 261°
2026-05-04 16:51 48.03828 13.29554 34197 ft 433 kts 262°
2026-05-04 16:51 48.03053 13.20681 34571 ft 433 kts 262°
2026-05-04 16:52 48.02281 13.11779 35003 ft 431 kts 262°
2026-05-04 16:52 48.01896 13.07355 35196 ft 430 kts 262°
2026-05-04 16:53 48.01248 12.99980 35504 ft 429 kts 262°
2026-05-04 16:53 48.00069 12.86735 35885 ft 431 kts 261°
2026-05-04 16:54 47.99667 12.82307 35908 ft 430 kts 261°
2026-05-04 16:55 47.97258 12.56183 35911 ft 420 kts 261°
2026-05-04 16:56 47.95232 12.34272 35912 ft 433 kts 261°
2026-05-04 16:57 47.93978 12.20914 35895 ft 430 kts 261°
2026-05-04 16:58 47.92261 12.03489 35905 ft 424 kts 260°
2026-05-04 17:00 47.89643 11.77444 35919 ft 426 kts 260°
2026-05-04 17:01 47.87492 11.55622 35940 ft 426 kts 260°
2026-05-04 17:02 47.85736 11.38144 35953 ft 427 kts 260°
2026-05-04 17:03 47.84396 11.25036 35956 ft 427 kts 260°
2026-05-04 17:03 47.83041 11.11916 35977 ft 428 kts 259°
2026-05-04 17:04 47.81172 10.94415 35961 ft 429 kts 259°
2026-05-04 17:05 47.79265 10.76897 35963 ft 428 kts 259°
2026-05-04 17:06 47.77827 10.63829 35960 ft 428 kts 259°
2026-05-04 17:07 47.76528 10.52145 35967 ft 428 kts 259°
2026-05-04 17:07 47.75392 10.42008 35956 ft 428 kts 259°
2026-05-04 17:08 47.74345 10.28865 35967 ft 428 kts 266°
2026-05-04 17:09 47.74218 10.20039 35959 ft 427 kts 267°
2026-05-04 17:09 47.74052 10.11220 35964 ft 426 kts 266°
2026-05-04 17:10 47.73504 9.89298 35962 ft 425 kts 266°
2026-05-04 17:11 47.73272 9.80530 35977 ft 425 kts 266°
2026-05-04 17:12 47.72906 9.67382 35993 ft 424 kts 264°
2026-05-04 17:13 47.70352 9.45833 35996 ft 425 kts 257°
2026-05-04 17:14 47.68170 9.28555 35965 ft 427 kts 258°
2026-05-04 17:15 47.66537 9.15541 35966 ft 428 kts 257°
2026-05-04 17:16 47.64333 8.98176 35984 ft 428 kts 257°
2026-05-04 17:17 47.62100 8.80810 36024 ft 428 kts 257°
2026-05-04 17:18 47.59857 8.63581 36032 ft 425 kts 257°
2026-05-04 17:19 47.57605 8.46491 36037 ft 421 kts 257°
2026-05-04 17:20 47.55348 8.29576 35987 ft 418 kts 257°
2026-05-04 17:20 47.53643 8.16925 36001 ft 417 kts 257°
2026-05-04 17:21 47.51350 8.00084 36010 ft 418 kts 257°
2026-05-04 17:22 47.50192 7.91655 36022 ft 418 kts 257°
2026-05-04 17:23 47.47865 7.74842 36037 ft 419 kts 257°
2026-05-04 17:24 47.46303 7.62099 36049 ft 421 kts 262°
2026-05-04 17:25 47.45247 7.44825 36036 ft 423 kts 263°
2026-05-04 17:26 47.44107 7.27602 36033 ft 422 kts 262°
2026-05-04 17:27 47.42616 7.06103 36053 ft 420 kts 262°
2026-05-04 17:28 47.41401 6.88990 36049 ft 418 kts 262°
2026-05-04 17:29 47.39544 6.63492 36063 ft 416 kts 262°
2026-05-04 17:31 47.37943 6.42298 36012 ft 414 kts 261°
2026-05-04 17:32 47.36320 6.21299 36031 ft 412 kts 261°
2026-05-04 17:33 47.34994 6.04478 36012 ft 412 kts 261°
2026-05-04 17:34 47.33582 5.87684 36010 ft 413 kts 260°
2026-05-04 17:35 47.31863 5.66676 35995 ft 415 kts 261°
2026-05-04 17:36 47.31179 5.58239 36007 ft 415 kts 260°
2026-05-04 17:36 47.30485 5.49790 35991 ft 415 kts 260°
2026-05-04 17:37 47.29782 5.41330 35641 ft 421 kts 260°
2026-05-04 17:37 47.29423 5.37046 35138 ft 420 kts 260°
2026-05-04 17:37 47.29064 5.32770 34502 ft 420 kts 260°
2026-05-04 17:37 47.28704 5.28497 33888 ft 420 kts 260°
2026-05-04 17:38 47.28351 5.24303 33414 ft 415 kts 260°
2026-05-04 17:38 47.27989 5.20047 32926 ft 410 kts 260°
2026-05-04 17:38 47.27655 5.15962 32497 ft 406 kts 264°
2026-05-04 17:38 47.27893 5.11782 32061 ft 408 kts 281°
2026-05-04 17:39 47.30416 5.04391 31222 ft 414 kts 306°
2026-05-04 17:39 47.32375 5.01290 30831 ft 412 kts 309°
2026-05-04 17:39 47.34380 4.98286 30401 ft 410 kts 309°
2026-05-04 17:40 47.36379 4.95309 29992 ft 407 kts 309°
2026-05-04 17:40 47.38361 4.92327 29488 ft 404 kts 308°
2026-05-04 17:40 47.40300 4.89363 29106 ft 399 kts 308°
2026-05-04 17:40 47.41572 4.87409 28761 ft 397 kts 308°
2026-05-04 17:41 47.43474 4.84472 28312 ft 394 kts 308°
2026-05-04 17:41 47.45388 4.81506 27875 ft 395 kts 308°
2026-05-04 17:41 47.47290 4.78552 27444 ft 399 kts 308°
2026-05-04 17:41 47.49208 4.75574 27010 ft 399 kts 308°
2026-05-04 17:42 47.51111 4.72621 26685 ft 394 kts 307°
2026-05-04 17:42 47.52968 4.69739 26362 ft 389 kts 307°
2026-05-04 17:42 47.54826 4.66850 26036 ft 388 kts 307°
2026-05-04 17:42 47.56695 4.63931 25731 ft 393 kts 307°
2026-05-04 17:43 47.58588 4.60971 25408 ft 397 kts 308°
2026-05-04 17:43 47.60487 4.58003 25104 ft 394 kts 308°
2026-05-04 17:43 47.62361 4.55076 24769 ft 390 kts 308°
2026-05-04 17:43 47.64220 4.52170 24435 ft 385 kts 308°
2026-05-04 17:44 47.66059 4.49291 24137 ft 383 kts 308°
2026-05-04 17:44 47.67889 4.46418 23826 ft 382 kts 308°
2026-05-04 17:44 47.69709 4.43558 23509 ft 380 kts 308°
2026-05-04 17:44 47.71523 4.40705 23150 ft 379 kts 308°
2026-05-04 17:45 47.73333 4.37855 22827 ft 377 kts 308°
2026-05-04 17:45 47.75128 4.35024 22482 ft 375 kts 308°
2026-05-04 17:45 47.76914 4.32206 22168 ft 374 kts 308°
2026-05-04 17:45 47.78668 4.29437 21864 ft 372 kts 308°
2026-05-04 17:46 47.80459 4.26603 21554 ft 370 kts 308°
2026-05-04 17:46 47.82196 4.23853 21267 ft 369 kts 308°
2026-05-04 17:46 47.83952 4.21072 20997 ft 368 kts 308°
2026-05-04 17:46 47.85720 4.18266 20683 ft 367 kts 308°
2026-05-04 17:47 47.87428 4.15499 20382 ft 364 kts 303°
2026-05-04 17:47 47.88621 4.12268 20075 ft 352 kts 283°
2026-05-04 17:47 47.89237 4.08781 19815 ft 346 kts 278°
2026-05-04 17:47 47.89738 4.05276 19524 ft 345 kts 277°
2026-05-04 17:48 47.90215 4.01766 19243 ft 344 kts 277°
2026-05-04 17:48 47.90692 3.98279 18964 ft 343 kts 277°
2026-05-04 17:48 47.91175 3.94810 18688 ft 342 kts 277°
2026-05-04 17:48 47.91667 3.91339 18400 ft 341 kts 278°
2026-05-04 17:49 47.92160 3.87888 18105 ft 339 kts 278°
2026-05-04 17:49 47.92655 3.84446 17797 ft 338 kts 278°
2026-05-04 17:49 47.93146 3.81031 17516 ft 336 kts 278°
2026-05-04 17:49 47.93634 3.77635 17229 ft 334 kts 278°
2026-05-04 17:50 47.94117 3.74264 16950 ft 332 kts 278°
2026-05-04 17:50 47.94597 3.70908 16676 ft 330 kts 278°
2026-05-04 17:50 47.95076 3.67560 16418 ft 328 kts 278°
2026-05-04 17:50 47.95544 3.64278 16150 ft 327 kts 278°
2026-05-04 17:51 47.96015 3.60966 15887 ft 326 kts 278°
2026-05-04 17:51 47.96522 3.57670 15664 ft 323 kts 279°
2026-05-04 17:51 47.97012 3.54425 15682 ft 321 kts 278°
2026-05-04 17:51 47.97498 3.51159 15675 ft 324 kts 278°
2026-05-04 17:52 47.97984 3.47863 15667 ft 326 kts 278°
2026-05-04 17:52 47.98470 3.44554 15610 ft 327 kts 278°
2026-05-04 17:52 47.98957 3.41227 15340 ft 328 kts 278°
2026-05-04 17:52 47.99441 3.37924 15065 ft 326 kts 278°
2026-05-04 17:53 47.99928 3.34628 14796 ft 322 kts 278°
2026-05-04 17:53 48.00410 3.31369 14434 ft 321 kts 278°
2026-05-04 17:53 48.00888 3.28129 14079 ft 319 kts 278°
2026-05-04 17:53 48.01364 3.24890 13733 ft 318 kts 278°
2026-05-04 17:54 48.01833 3.21689 13489 ft 312 kts 278°
2026-05-04 17:54 48.02288 3.18589 13382 ft 306 kts 278°
2026-05-04 17:54 48.02745 3.15481 13355 ft 309 kts 278°
2026-05-04 17:54 48.03209 3.12304 13335 ft 316 kts 278°
2026-05-04 17:55 48.03676 3.09082 13326 ft 317 kts 278°
2026-05-04 17:55 48.04144 3.05853 13089 ft 319 kts 278°
2026-05-04 17:55 48.04611 3.02622 12819 ft 317 kts 278°
2026-05-04 17:55 48.05157 2.99453 12677 ft 314 kts 289°
2026-05-04 17:56 48.06468 2.96832 12492 ft 324 kts 318°
2026-05-04 17:56 48.08500 2.95260 12286 ft 336 kts 339°
2026-05-04 17:56 48.10835 2.94625 12035 ft 344 kts 354°
2026-05-04 17:56 48.13222 2.95003 11744 ft 349 kts 15°
2026-05-04 17:57 48.15462 2.96386 11528 ft 348 kts 23°
2026-05-04 17:57 48.17642 2.97947 11241 ft 347 kts 24°
2026-05-04 17:57 48.19815 2.99518 10974 ft 345 kts 24°
2026-05-04 17:57 48.21983 3.01054 10733 ft 343 kts 23°
2026-05-04 17:58 48.24135 3.02558 10487 ft 339 kts 23°
2026-05-04 17:58 48.26270 3.03999 10234 ft 334 kts 17°
2026-05-04 17:58 48.28485 3.04493 9988 ft 323 kts 351°
2026-05-04 17:58 48.30593 3.03656 9923 ft 304 kts 331°
2026-05-04 17:59 48.32306 3.02013 9887 ft 283 kts 313°
2026-05-04 17:59 48.33670 2.99998 9867 ft 266 kts 309°
2026-05-04 17:59 48.36105 2.96161 9658 ft 241 kts 308°
2026-05-04 18:00 48.37234 2.94381 9557 ft 230 kts 308°
2026-05-04 18:00 48.38335 2.92647 9121 ft 233 kts 308°
2026-05-04 18:00 48.39437 2.90918 8914 ft 226 kts 308°
2026-05-04 18:00 48.40509 2.89246 8774 ft 217 kts 308°
2026-05-04 18:01 48.41534 2.87648 8658 ft 212 kts 308°
2026-05-04 18:01 48.42560 2.86048 8555 ft 207 kts 308°
2026-05-04 18:01 48.43552 2.84499 8451 ft 209 kts 308°
2026-05-04 18:02 48.45479 2.81164 8198 ft 207 kts 285°
2026-05-04 18:02 48.45635 2.79101 8140 ft 196 kts 267°
2026-05-04 18:02 48.45692 2.77041 8020 ft 198 kts 269°
2026-05-04 18:02 48.45759 2.74964 7908 ft 198 kts 269°
2026-05-04 18:03 48.45823 2.72885 7800 ft 198 kts 269°
2026-05-04 18:03 48.45885 2.70814 7697 ft 198 kts 268°
2026-05-04 18:03 48.45946 2.68742 7597 ft 198 kts 268°
2026-05-04 18:03 48.46004 2.66692 7499 ft 198 kts 268°